Location: Unspecified
(0.0000°N, 0.0000°E)
Time: 20:37:12
(UTC+00:00)

Tiangong 2 - Pass Details

Date: 14 December 2017
Orbit: 387 x 389 km, 42.8° (Epoch: 18 December)

Event Time Altitude Azimuth Distance (km) Brightness Sun altitude
Rises 18:35:13 0° 229° (SW) 2,260 6.6 -9.3°
Reaches altitude 10° 18:37:18 10° 231° (SW) 1,404 5.3 -9.7°
Maximum altitude 18:40:27 66° 315° (NW) 420 1.3 -10.5°
Enters shadow 18:43:03 14° 36° (NE) 1,182 3.0 -11.0°
